Location: Góry Miechowskie
(50.3599°N, 20.1803°E)
Time: 14:11:47
(UTC+00:00)

Vanguard 2 - Visible Passes

Search period start: 13 September 2024 00:00
Search period end: 23 September 2024 00:00
Orbit: 552 x 2911 km, 32.9° (Epoch: 12 September)

Date Brightness Start Highest point End Pass type
(mag) Time Alt. Az. Time Alt. Az. Time Alt. Az.
13 Sep 10.1 02:20:36 10° S 02:23:01 12° SSE 02:25:49 10° SE visible
14 Sep 10.0 02:33:11 10° S 02:36:24 14° SSE 02:40:18 10° ESE visible
15 Sep 9.8 02:46:14 10° SSW 02:49:49 16° SSE 02:54:21 10° SE visible
16 Sep 9.8 02:59:31 10° SSW 03:03:18 17° SSE 03:08:10 10° SE visible
17 Sep 9.7 03:12:59 10° SSW 03:16:49 18° SSE 03:21:47 10° SE visible
18 Sep 9.7 03:26:36 10° SSW 03:30:22 17° S 03:35:13 10° SE visible
19 Sep 9.7 03:40:23 10° SW 03:43:57 16° S 03:48:27 10° SE visible
20 Sep 9.8 01:50:54 11° SSE 01:50:54 11° SSE 01:52:02 10° SSE visible
21 Sep 9.7 02:04:10 11° SSE 02:04:10 11° SSE 02:05:45 10° SSE visible
22 Sep 9.6 02:17:27 11° S 02:17:33 11° S 02:19:03 10° SSE visible
